Location: *
(51.1351°N, 1.1868°E)
Time: 18:35:05
(UTC+00:00)

Daily predictions for brighter satellites

Satellite Brightness Start Highest point End
(mag) Time Altitude Azimuth Time Altitude Azimuth Time Altitude Azimuth
Cosmos 1953 Rocket 3.7 17:25:23 10° N 17:29:42 53° ENE 17:33:57 10° SSE
H-2A R/B 4.0 17:28:19 10° ENE 17:29:45 11° NE 17:31:12 10° NNE
CORIOLIS 4.4 17:24:54 10° SSE 17:30:15 81° WSW 17:35:39 10° NNW
Cosmos 1953 2.5 17:26:29 10° S 17:30:25 51° E 17:34:23 10° NNE
Unknown 3.5 17:28:47 10° WSW 17:32:42 89° N 17:36:37 10° ENE
Unknown 3.8 17:29:09 10° SW 17:33:13 60° SSE 17:37:19 10° ENE
Unknown 3.8 17:29:23 10° SW 17:33:28 59° SSE 17:37:34 10° ENE
Unknown 3.8 17:30:04 10° SW 17:34:08 60° SSE 17:38:14 10° ENE
Unknown 2.8 17:31:52 10° WNW 17:34:58 81° NNE 17:38:07 10° ESE
YAOGAN 6 3.1 17:31:35 10° SE 17:35:01 38° ENE 17:38:25 10° N
Cosmos 1758 3.4 17:33:54 10° SSW 17:37:52 81° W 17:41:52 10° N
Unknown 3.8 17:33:57 10° SW 17:38:03 63° SSE 17:42:09 10° ENE
Unknown 3.8 17:34:22 10° SW 17:38:27 63° SSE 17:42:34 10° ENE
Cosmos 1844 Rocket 2.8 17:33:55 10° SSW 17:39:28 61° ESE 17:45:02 10° NE
Unknown 3.7 17:36:06 10° WSW 17:40:12 66° SSE 17:44:20 10° ENE
FengYun 1-2 T 4.3 17:36:31 10° SSE 17:42:04 64° ENE 17:47:38 10° N
Unknown 3.7 17:39:24 10° WSW 17:43:31 68° SSE 17:47:35 10° ENE
Unknown 3.7 17:39:48 10° WSW 17:43:55 67° SSE 17:47:57 10° ENE
Unknown 3.3 17:41:53 10° WNW 17:44:28 48° SSW 17:47:03 10° SE
Cosmos 1606 Rocket 3.5 17:40:42 10° S 17:45:01 63° E 17:49:21 10° NNE
Unknown 3.7 17:40:59 10° WSW 17:45:06 68° SSE 17:49:06 11° ENE
Cosmos 724 4.4 17:39:02 10° SW 17:45:11 88° SE 17:51:15 10° NE
Unknown 3.7 17:44:07 10° WSW 17:48:14 69° SSE 17:52:07 12° ENE
Envisat 3.0 17:44:16 10° SSE 17:49:21 85° ENE 17:54:29 10° NNW
Meteor 1-16 Rocket 4.4 17:44:54 10° SSE 17:50:12 48° E 17:55:23 10° NNE
Cosmos 1758 Rocket 4.2 17:46:36 10° NNW 17:51:01 64° W 17:55:25 10° S
Unknown 3.7 17:47:34 10° WSW 17:51:43 73° SSE 17:55:27 12° ENE
Unknown 3.6 17:49:14 10° WSW 17:53:21 74° SSE 17:57:03 13° ENE
Cosmos 1461 3.5 17:50:56 10° NNW 17:54:41 36° NE 17:58:04 13° ESE
Unknown 3.6 17:50:54 10° WSW 17:55:02 75° SSE 17:58:39 13° ENE
Cosmos 1908 4.2 17:51:51 10° SSE 17:55:08 26° E 17:58:26 10° NNE
Unknown 3.6 17:52:33 10° WSW 17:56:42 76° SSE 18:00:15 14° ENE
Lacrosse 5 rocket 3.1 17:53:49 10° WNW 17:57:05 29° SW 18:00:30 10° SSE
FALCON 9 DEB 3.3 17:53:58 10° WNW 17:57:25 65° N 18:00:08 16° E
ASTEX 1 3.4 17:52:38 10° NNE 17:57:33 61° E 18:02:27 10° S
Unknown 3.6 17:55:53 10° WSW 18:00:02 79° SSE 18:03:27 15° ENE
Cosmos 1356 3.9 17:57:10 10° SSE 18:00:20 36° E 18:03:33 10° NNE
Cosmos 2278 Rocket 3.1 17:56:34 10° SSE 18:01:07 26° ESE 18:05:41 10° NE
Unknown 3.6 17:57:35 10° WSW 18:01:44 80° SSE 18:05:06 15° ENE
Cosmos 1939 Rocket 3.5 17:58:11 10° SE 18:01:49 35° ENE 18:05:31 10° N
Unknown 3.2 17:59:14 10° WNW 18:02:39 68° N 18:05:05 18° E
Unknown 3.6 17:59:12 10° WSW 18:03:21 81° SSE 18:06:39 16° ENE
Unknown 3.3 18:00:46 10° WNW 18:04:17 64° N 18:06:45 18° E
Cosmos 1470 4.1 18:00:54 10° SSW 18:04:43 43° WNW 18:08:33 10° N
Unknown 3.6 18:00:50 10° WSW 18:04:58 81° SSE 18:08:12 16° ENE
Unknown 3.6 18:01:14 10° WSW 18:05:23 82° SSE 18:08:36 16° ENE
Cosmos 1844 3.7 17:59:49 10° SSW 18:05:31 74° ESE 18:11:19 10° NNE
ATLAS 5 CENTAUR R/B 1.9 18:01:30 10° SW 18:05:51 72° NW 18:10:50 10° NE
SKYMED 2 3.5 18:03:07 10° NNE 18:07:28 68° ESE 18:11:48 10° S
Unknown 3.6 18:03:59 10° WSW 18:08:08 81° SSE 18:11:14 17° ENE
Cosmos 1328 3.7 18:04:19 10° N 18:08:20 73° ENE 18:12:17 10° SSE
Unknown 3.6 18:07:21 10° WSW 18:11:31 84° SSE 18:14:28 19° ENE
Unknown 3.6 18:09:00 10° WSW 18:13:09 85° SSE 18:16:03 19° ENE
YAOGAN 1 2.5 18:09:37 10° SSE 18:13:57 85° ENE 18:18:19 10° NNW
Unknown 3.6 18:10:53 10° WSW 18:15:03 89° SSE 18:17:53 20° ENE
ATLAS CENTAUR R/B 3.9 18:12:38 10° NW 18:15:29 15° N 18:18:14 10° NE
Unknown 3.6 18:12:16 10° WSW 18:16:25 87° SSE 18:19:12 20° ENE
Falcon 9 debris 3.1 18:13:38 10° WNW 18:17:05 72° NNE 18:18:58 25° E
Unknown 3.6 18:13:57 10° WSW 18:18:06 88° SSE 18:20:49 21° ENE
Cosmos 292 Rocket 3.8 18:16:06 10° S 18:20:42 54° ESE 18:25:22 10° NNE
Unknown 3.6 18:17:18 10° WSW 18:21:28 90° NE 18:24:03 22° ENE
Unknown 3.6 18:18:59 10° WSW 18:23:09 89° NNW 18:25:40 23° ENE
CSL-04 Rocket 3.8 18:18:44 10° SSE 18:24:17 80° WSW 18:29:49 10° NNW
CZ-4 R/B 2.1 18:20:37 10° S 18:24:44 59° W 18:28:56 10° NNW
Unknown 3.6 18:20:39 10° WSW 18:24:48 88° NNW 18:27:15 24° ENE
Unknown 3.6 18:22:19 10° WSW 18:26:29 87° NNW 18:28:51 25° ENE
Cosmos 2263 Rocket 4.2 18:21:54 10° W 18:26:29 25° NW 18:31:05 10° NNE
Cosmos 1726 Rocket 4.0 18:22:09 10° SSW 18:26:31 64° WNW 18:30:52 10° N
Unknown 3.2 18:23:45 10° WNW 18:27:16 73° N 18:28:48 31° E
Shenzhou-11 Module 4.0 18:27:25 10° SW 18:29:09 15° S 18:29:46 14° SSE
Unknown 3.6 18:25:38 10° WSW 18:29:47 85° NNW 18:32:02 26° ENE
Lacrosse 5 1.9 18:24:45 10° WNW 18:29:50 70° NNE 18:32:48 25° ESE
Unknown 3.6 18:27:07 10° WSW 18:31:16 83° NNW 18:33:28 27° ENE
Unknown 3.6 18:27:35 10° WSW 18:31:45 81° NNW 18:33:54 27° ENE
Cosmos 1726 2.0 18:28:07 10° S 18:31:47 86° W 18:35:28 10° N
Ariane Rocket 3.0 18:26:54 10° SSE 18:31:57 65° ENE 18:37:01 10° N
Cosmos 2228 3.9 18:27:44 10° SSW 18:32:01 53° WNW 18:36:19 10° N
NOAA 11 4.1 18:26:41 10° SSE 18:32:07 75° ENE 18:37:34 10° NNW
Cosmos 1242 Rocket 3.6 18:28:32 10° NNW 18:32:08 49° W 18:35:41 10° S
Unknown 3.6 18:29:12 10° WSW 18:33:22 80° NNW 18:35:29 28° ENE
Unknown 3.6 18:32:16 10° WSW 18:36:27 82° NNW 18:38:25 30° ENE
Cosmos 1833 Rocket 2.6 18:33:43 10° NNW 18:39:22 79° ENE 18:44:18 14° SE
CZ-2D R/B 3.2 18:35:53 10° SSE 18:39:44 88° WSW 18:43:38 10° NNW
Unknown 3.6 18:35:36 10° WSW 18:39:45 80° NNW 18:41:36 32° ENE
ARGOS 4.0 18:38:25 26° E 18:39:56 30° ENE 18:44:37 10° N
Unknown 3.6 18:37:18 10° W 18:41:29 79° NNW 18:43:15 33° ENE
Cosmos 2058 Rocket 3.4 18:37:30 10° SSW 18:41:50 67° WNW 18:46:12 10° N
Cosmos 921 Rocket 3.5 18:37:51 10° SSW 18:42:19 63° WNW 18:46:46 10° NNE
Unknown 3.6 18:38:56 10° W 18:43:05 79° NNW 18:44:48 34° ENE
Unknown 3.6 18:39:15 10° W 18:43:21 75° NNW 18:45:00 35° ENE
Unknown 3.6 18:40:38 10° W 18:44:47 78° NNW 18:46:26 36° ENE
Cosmos 2084 4.1 18:41:36 10° WSW 18:46:04 58° NW 18:49:25 17° NE
Cosmos 1339 Rocket 4.3 18:41:44 10° S 18:47:48 80° E 18:53:59 10° NNE
Cosmos 1937 Rocket 4.5 18:43:37 10° N 18:48:00 27° NE 18:48:39 26° ENE
Unknown 3.7 18:44:45 10° W 18:48:48 70° N 18:50:11 39° ENE
Cosmos 1777 Rocket 4.4 18:44:47 10° NNW 18:49:58 64° WSW 18:55:06 10° S
SPOT 3 Rocket 4.0 18:48:34 31° ESE 18:50:17 41° ENE 18:55:09 10° N
NOSS 3-2 (A) 4.1 18:46:18 10° S 18:51:15 29° ESE 18:51:20 29° ESE
Unknown 3.6 18:47:14 10° W 18:51:23 75° NNW 18:52:46 41° ENE
Unknown 3.4 18:47:57 10° WNW 18:51:41 66° N 18:52:29 49° ENE
HJ-1C 3.2 18:51:33 37° SSE 18:52:46 81° ENE 18:56:09 10° N
Unknown 3.6 18:48:57 10° W 18:53:07 75° N 18:54:24 42° ENE
NOSS 3-3 (A) 4.4 18:47:21 10° NW 18:54:39 77° NE 18:59:43 26° SE
Unknown 3.7 18:50:36 10° W 18:54:46 74° N 18:55:59 44° ENE
NOSS 3-3 (C) 4.4 18:47:26 10° NW 18:54:46 77° NE 18:59:47 26° SE
Cosmos 1459 Rocket 4.1 18:49:00 10° N 18:55:03 52° ENE 18:58:57 22° SE
USA 116 3.9 18:52:09 10° N 18:55:12 53° WNW 18:58:23 10° SSW
COSMO-SKYMED 1 3.8 18:51:23 10° N 18:55:31 43° WNW 18:59:37 10° SW
Unknown 3.7 18:52:14 10° W 18:56:23 73° N 18:57:33 45° ENE
FREGAT/IRIS 4.4 18:59:31 20° N 18:59:31 20° N 19:00:35 10° N
Cosmos 1605 Rocket 4.3 18:51:42 10° NNW 18:57:52 67° W 19:03:56 10° S
Cosmos 2058 3.1 18:53:48 10° N 18:57:56 49° ENE 18:58:10 48° E
Unknown 3.7 18:53:56 10° W 18:58:05 73° N 18:59:10 47° ENE
Gbstr 26 Del rocket 4.2 18:54:08 10° WNW 19:00:14 69° SSW 19:04:04 29° SE
Unknown 3.7 18:57:17 10° W 19:01:26 72° N 19:02:24 50° ENE
Cosmos 2082 Rocket 2.1 18:55:43 10° NNW 19:01:30 81° ENE 19:04:38 28° SE
Starlink (trailer) 3.7 18:58:57 10° W 19:03:06 71° N 19:03:59 52° NE
SJ 16-02 2.6 18:59:21 10° N 19:02:24 26° NE 19:02:24 26° NE
Abrixas rocket 4.5 19:02:03 10° SSW 19:02:52 15° SSW 19:02:52 15° SSW
Unknown 3.7 19:00:36 10° W 19:04:45 71° N 19:05:34 53° NE
Unknown 3.5 19:01:02 10° W 19:04:52 65° N 19:05:15 60° NE
Unknown 3.7 19:02:13 10° W 19:06:22 71° N 19:07:07 55° NE
Resurs 01 Rocket 3.3 19:09:04 21° NNE 19:09:04 21° NNE 19:11:13 10° N
H-2A R/B 2.3 19:06:52 43° ESE 19:07:56 49° ENE 19:13:09 10° N
SJ-6B 3.4 19:08:58 40° NNE 19:08:58 40° NNE 19:11:43 10° N
Cosmos 1727 Rocket 3.8 19:03:06 10° S 19:09:16 81° E 19:15:28 10° NNE
Unknown 3.5 19:07:37 10° W 19:11:31 65° N 19:11:44 64° NNE
Unknown 3.7 19:08:42 10° W 19:12:50 69° N 19:13:18 62° NE
Unknown 3.7 19:08:56 10° W 19:13:05 69° N 19:13:33 62° NE
Unknown 3.6 19:09:36 10° W 19:13:45 69° N 19:14:12 62° NE
Okean 3 Rocket 4.0 19:09:22 10° N 19:13:08 45° NE 19:13:08 45° NE
Cosmos 1802 Rocket 4.0 19:08:41 10° N 19:15:05 61° ENE 19:17:48 35° SE
Unknown 3.6 19:13:32 10° W 19:17:40 68° N 19:17:57 65° NNE
Unknown 3.7 19:13:57 10° W 19:18:06 68° N 19:18:21 66° NNE
Cosmos 2173 Rocket 3.9 19:12:07 10° N 19:18:26 75° ENE 19:22:02 27° SSE
Unknown 3.7 19:15:44 10° W 19:19:52 68° N 19:20:03 66° NNE
Unknown 3.7 19:19:03 10° W 19:23:11 67° N 19:23:14 67° N
Unknown 3.7 19:19:26 10° W 19:23:34 67° N 19:23:36 67° N
Cosmos 1844 Rocket 4.3 19:18:42 10° WSW 19:23:44 32° NW 19:28:47 10° NNE
SJ-11-01 4.3 19:22:27 39° S 19:24:12 82° WSW 19:28:55 10° NNW
Unknown 3.7 19:20:37 10° W 19:24:45 67° N 19:24:45 67° N
Unknown 3.8 19:23:46 10° W 19:27:46 66° NNW 19:27:46 66° NNW
In-Cosmos 22 Rocket 4.0 19:23:44 10° N 19:29:08 81° ENE 19:30:27 53° SSE
Unknown 3.9 19:27:15 10° W 19:31:06 64° NNW 19:31:06 64° NNW
Cosmos 1898 Rocket 3.4 19:27:06 10° NNW 19:32:22 69° ENE 19:32:33 69° ENE
Unknown 3.9 19:28:55 10° W 19:32:41 62° NW 19:32:41 62° NW
Cosmos 1461 4.0 19:30:01 10° NW 19:33:49 39° WSW 19:34:29 36° SW
Unknown 4.0 19:30:36 10° W 19:34:18 61° NW 19:34:18 61° NW
ADEOS Rocket 3.5 19:27:11 10° NNE 19:34:52 59° E 19:42:05 10° S
Unknown 4.1 19:32:15 10° W 19:35:54 59° NW 19:35:54 59° NW
Cosmos 1725 Rocket 4.0 19:30:42 10° N 19:36:54 59° ENE 19:37:16 58° E
CZ-2C R/B 3.4 19:37:01 57° ENE 19:37:01 57° ENE 19:42:38 10° N
Cosmos 2100 Rocket 4.0 19:33:06 10° NNW 19:39:19 77° W 19:43:19 23° S
Unknown 4.2 19:35:37 10° W 19:39:06 56° NW 19:39:06 56° NW
Cosmos 2084 Rocket 3.7 19:35:24 10° NW 19:39:27 69° W 19:39:27 69° W
MetOp-A 4.5 19:41:48 50° NE 19:41:48 50° NE 19:46:16 10° N
Cosmos 1000 Rocket 4.3 19:35:11 10° S 19:41:21 78° E 19:47:37 10° NNE
Unknown 4.3 19:37:19 10° W 19:40:45 54° NW 19:40:45 54° NW
Cosmos 1812 Rocket 4.2 19:37:24 10° SSW 19:41:45 55° WNW 19:46:09 10° N
Unknown 4.3 19:38:57 10° W 19:42:18 52° NW 19:42:18 52° NW
Unknown 4.4 19:40:35 10° W 19:43:51 51° WNW 19:43:51 51° WNW
Cosmos 2278 Rocket 2.5 19:39:07 10° SW 19:44:45 66° WNW 19:50:27 10° NNE
Unknown 4.4 19:41:00 10° W 19:44:15 50° WNW 19:44:15 50° WNW
ATLAS 5 CENTAUR R/B 3.6 19:47:27 10° WNW 19:51:22 26° NNW 19:53:19 20° NNE
ATLAS CENTAUR R/B 3.5 19:52:22 10° NNW 19:55:00 21° N 19:55:00 21° N
Cosmos 2016 Rocket 4.0 19:55:53 10° NNW 20:02:10 80° W 20:03:18 61° SSW
SL-08 R/B 4.3 20:01:36 10° N 20:07:47 84° W 20:07:52 83° WSW
Lacrosse 5 3.1 20:07:57 10° WNW 20:12:00 36° WSW 20:12:00 36° WSW
USA 238 DEB 3.6 20:09:03 10° SW 20:15:48 85° NW 20:16:23 76° NNE
USA 238 3.6 20:09:10 10° SW 20:15:55 85° NW 20:16:25 78° NNE
Cosmos 2061 Rocket 4.4 20:11:53 10° NNW 20:18:02 59° W 20:19:19 50° SW
ARGOS 3.7 20:19:57 53° W 20:19:58 53° W 20:25:18 10° NNW
SJ 16-02 3.7 20:37:44 10° NW 20:39:25 21° NW 20:39:25 21° NW
Cosmos 2227 Rocket 4.5 20:40:19 10° N 20:42:32 14° NNE 20:42:32 14° NNE
Resurs 01 Rocket 4.0 20:46:39 20° NNW 20:46:39 20° NNW 20:48:10 10° NNW
Cosmos 2082 Rocket 4.3 20:40:53 10° NW 20:44:55 20° W 20:46:31 18° WSW
H-2A R/B 3.7 20:47:31 30° W 20:47:34 30° W 20:52:20 10° NNW
Cosmos 2297 Rocket 4.5 20:45:46 10° N 20:47:52 15° NNE 20:47:52 15° NNE
